BEIDOU-2 IGSO-4

Last updated on Wed Sep 17 2025 00:02:47 GMT+0000 (Coordinated Universal Time)

1 37763U 11038A 25258.76731988 -.00000133 00000+0 00000+0 0 9996 2 37763 54.5794 168.1390 0144878 230.7516 325.6833 1.00259506 51897
UTC large
Height (km)
Speed (km/s)
/
Latitude / Longitude
Inclination (degrees)
Orbital Period (minutes)
Azimuth
Elevation
Range (km)
Doppler Factor

Next 0 passes for location: London (51.5072 / 0.1276)

Sorry there are no passes over London.